Overview Statistics Trail Chart Weather Telemetry Raw packets
 

This is the latest recevied weather packets stored in our database for station/object KB2EAR-13. If no packets are shown the sender has not sent any weather packets the latest 10 day(s).

<< 86 87 88 89 90 91 92 >>
Time Temp. Humidity Pressure Rain* Wind** Luminosity Snow
1788016217 22.78° C 54% 1025.1 hPa 0 mm - - -
1788015917 22.78° C 52% 1025.1 hPa 0 mm - - -
1788015617 22.78° C 57% 1025.1 hPa 0 mm - - -
1788015317 22.22° C 55% 1025.1 hPa 0 mm - - -
1788015017 22.22° C 57% 1025.1 hPa 0 mm - - -
1788014717 22.22° C 58% 1025.2 hPa 0 mm - - -
1788014417 21.67° C 57% 1025.1 hPa 0 mm - - -
1788014117 21.67° C 57% 1025 hPa 0 mm - - -
1788013817 21.67° C 58% 1025.1 hPa 0 mm - - -
1788013517 21.67° C 59% 1025 hPa 0 mm - - -
1788013217 21.67° C 60% 1025.1 hPa 0 mm - - -
1788012917 21.11° C 59% 1025 hPa 0 mm - - -
1788012617 21.11° C 61% 1025 hPa 0 mm - - -
1788012317 21.11° C 62% 1024.8 hPa 0 mm - - -
1788012017 20.56° C 62% 1024.8 hPa 0 mm - - -
1788011717 20.56° C 64% 1024.7 hPa 0 mm - - -
1788011417 20.56° C 62% 1024.7 hPa 0 mm - - -
1788011117 20.56° C 62% 1024.7 hPa 0 mm - - -
1788010817 20.56° C 61% 1024.6 hPa 0 mm - - -
1788010517 20.56° C 63% 1024.6 hPa 0 mm - - -
1788010217 20° C 64% 1024.5 hPa 0 mm - - -
1788009917 20° C 65% 1024.4 hPa 0 mm - - -
1788009620 20° C 65% 1024.5 hPa 0 mm - - -
1788009317 20° C 68% 1024.4 hPa 0 mm - - -
1788009017 19.44° C 70% 1024.4 hPa 0 mm - - -

* Rain latest hour (hover to see other rain measurements)
** Current wind speed in m/s (hover to see current wind gust speed)